FREGAT DEB, 46619

Orbit data source: Space-Track

FREGAT DEB, 46619 is space debris in LEO originally from a launch on Mon, 18 Jul 2011 UTC launched from the Tyuratam Missile And Space Complex (TTMTR). Debris objects in space refer to the collection of defunct objects orbiting the Earth. Examples of debris include non-operational satellites, rocket bodies, and fragments generated from explosions, collisions, or faulty payload assembly.

Loading next visibility...
Identifier
46619, 2011-037MK
Orbit
LEO
Country
Flag of CISCIS
Related business
Manufacturer
Lavochkin
Mission
Spacecraft
Bus & Motor
Unknown
Mass
Unknown
Launch date (UTC)
2011-07-18 (15 years ago)
Launch vehicle
Unknown
Launch site
Tyuratam Missile And Space Complex (TTMTR)
Object type
Payload
Rocket body
Debris
Shape & HBR
Unknown shape, 0.1 m
Radar Cross Section
Medium (>0.1 m² and <1 m²)

Expand to show TLE details & history
Last TLE update: 5 days ago

TLE from 5 days ago
0 FREGAT DEB
1 46619U 11037MK  26250.79019314  .00004373  00000-0  33336-2 0  9994
2 46619  51.0001 165.0192 1068677 301.5017  48.5699 12.49185099256845
Epoch: 2026-09-07T18:57Z
TLE epoch observation values (Epoch: 2026-09-07T18:57:52.687Z)
Latitude
0.00001°
Longitude
-106.31622°
Altitude
969.697 km
Speed
7.598 km/s
True Right ascension
11h 00m 04s
True Declination
0° 00' 00"
Sunlit
Object was in daylight at epoch
Visualization orbit readout
Latitude
Unknown
Longitude
Unknown
Altitude
Unknown
Speed
Unknown
Apparent Right ascension
Unknown
Apparent Declination
Unknown
Sunlit
N/A
Visualization observer readout
Local Sidereal Time
17:13:35
Azimuth
Unknown
Elevation
Unknown
Doppler factor
Unknown
Orbital elements
Apogee altitude
2,306.994 km
Perigee altitude
629.901 km
Semi-major axis
7,846.584 km
Eccentricity
0.10687
Inclination
51.0001°
RAAN
165.0192°
Arg. of periapsis
301.5017°
True anomaly
58.58626°
Mean anomaly
48.5699°
Eccentric anomaly
53.49143°
Mean motion
3.12264 °/min
Orbital period
115.29 mins
BSTAR
0.0033336
Loading maneuver chart data...
Computing Atmospheric mass density...

Documentation

Showing up to 5 results
|